[[{"header":{"parameterUnit":"m.s-1","parameterCategory":1,"la1":30.2991,"la2":30.254,"lo1":-89.0895,"lo2":-89.0444,"dy":0.0017,"dx":0.0017,"nx":28,"ny":28,"refTime":"2024-08-29T21:00:00:Z","depth":0,"parameterNumber":2,"parameterNumberName":"U-component_of_WINDS"},"data":[0,0,0,0,0,0,0,0,0,0,0,0,0,0,0,0,0,0,0,0,0,0,0,0,0,0,0,0,0,0,0,0,0,0,0,0,0,0,0,0,0,0,0,0,0,0,0,0,0,0,0,0,0,0,0,0,0,0,-4.5062,-4.5063,0,-4.513,-4.5131,-4.5132,-4.5101,-4.5099,-4.5098,-4.5096,-4.516,-4.5163,-4.5167,0,0,0,0,0,0,0,0,0,0,0,0,0,-4.4901,-4.4904,-4.5062,-4.5063,-4.5064,-4.513,-4.5131,-4.5132,-4.5101,-4.5099,-4.5097,-4.5095,-4.5159,-4.5163,-4.5167,0,0,0,0,0,0,0,0,0,0,0,0,0,-4.497,-4.4905,-4.5062,-4.5056,-4.5057,-4.513,-4.5131,-4.5132,-4.5102,-4.5099,-4.5097,-4.5094,-4.5158,-4.5163,-4.5167,-4.5248,0,0,-4.5182,-4.5185,0,0,0,0,0,0,0,0,-4.4966,-4.4976,-4.5056,-4.5057,-4.5057,-4.5105,-4.5098,-4.5171,-4.5102,-4.5084,-4.5096,-4.5093,-4.5143,-4.5149,-4.5167,-4.5251,-4.5254,-4.5183,-4.5186,-4.5188,-4.5189,0,0,0,0,0,0,0,-4.4961,-4.4973,-4.5089,-4.5058,-4.5058,-4.5049,-4.5056,-4.5111,-4.5127,-4.5086,-4.5084,-4.5093,-4.5143,-4.5163,-4.5169,-4.5255,-4.5183,-4.5187,-4.519,-4.5192,-4.5408,-4.541,0,0,0,0,0,0,-4.4957,-4.4969,-4.5086,-4.5091,-4.5005,-4.5054,-4.5062,-4.5092,-4.5126,-4.5129,-4.5095,-4.5091,-4.5156,-4.5163,-4.5171,-4.5267,-4.5188,-4.5193,-4.5195,-4.5405,-4.5408,-4.5411,0,0,0,0,0,0,-4.4954,-4.4968,-4.5084,-4.5029,-4.5043,-4.506,-4.5093,-4.5094,-4.5114,-4.5133,-4.5135,-4.5112,-4.5154,-4.5164,-4.5229,-4.5269,-4.5195,-4.5199,-4.5402,-4.5406,-4.541,-4.546,0,0,0,0,0,0,-4.4949,-4.4967,-4.4999,-4.503,-4.5046,-4.5143,-4.5096,-4.5098,-4.5123,-4.5119,-4.515,-4.5153,-4.5153,-4.5222,-4.5234,-4.5274,-4.5203,-4.5398,-4.5404,-4.5409,-4.5455,-4.5465,-4.5474,0,0,0,0,0,-4.4944,-4.5009,-4.5,-4.5015,-4.5087,-4.5145,-4.5154,-4.5154,-4.5127,-4.5158,-4.517,-4.5152,-4.5263,-4.5229,-4.5243,-4.5284,-4.5396,-4.5402,-4.5408,-4.545,-4.5463,-4.5474,0,0,0,0,0,0,-4.4978,-4.5013,-4.5004,-4.5081,-4.5111,-4.514,-4.5179,-4.5168,-4.5204,-4.5198,-4.5196,-4.5203,-4.5271,-4.5284,-4.5246,-4.5364,-4.5325,-4.5334,-4.5352,-4.5365,-4.5374,-4.5369,-4.5207,0,0,0,0,0,-4.4996,-4.5042,-4.5069,-4.5134,-4.515,-4.5162,-4.5187,-4.5186,-4.5215,-4.5227,-4.5244,-4.5272,-4.5313,-4.534,-4.5379,-4.5458,-4.5463,-4.5493,-4.5503,-4.5511,-4.5518,-4.556,-4.5573,-4.5432,-4.5432,-4.5432,0,0,-4.503,-4.5055,-4.5084,-4.5142,-4.5165,-4.5211,-4.5173,-4.5223,-4.5257,-4.5234,-4.5297,-4.5311,-4.5342,-4.5414,-4.5447,-4.5428,-4.5559,-4.5519,-4.5525,-4.5528,-4.5568,-4.5581,-4.5593,-4.5436,-4.5436,-4.5435,0,0,-4.5118,-4.5142,-4.5199,-4.5223,-4.5259,-4.5267,-4.5281,-4.5312,-4.5321,-4.5385,-4.5369,-4.5409,-4.548,-4.5503,-4.5524,-4.5622,-4.5606,-4.5635,-4.5685,-4.5726,-4.5737,-4.5747,-4.5781,-4.5793,-4.5643,-4.5643,-4.5643,0,-4.5156,-4.5227,-4.5229,-4.5282,-4.5307,-4.5292,-4.5349,-4.5372,-4.5417,-4.5435,-4.5413,-4.5503,-4.5523,-4.56,-4.5625,-4.5643,-4.5657,-4.563,-4.5736,-4.5746,-4.5755,-4.5787,-4.58,-4.5646,-4.5646,-4.5645,-4.5645,0,-4.5271,-4.5321,-4.5363,-4.541,-4.544,-4.5495,-4.5505,-4.5535,-4.5532,-4.5542,-4.5607,-4.5631,-4.5674,-4.5693,-4.5689,-4.577,-4.5757,-4.5736,-4.5696,-4.5771,-4.5801,-4.5814,-4.5651,-4.5649,-4.5648,-4.5648,0,0,-4.5379,-4.5429,-4.5444,-4.5466,-4.5505,-4.5543,-4.5597,-4.5642,-4.5667,-4.57,-4.5744,-4.5806,-4.5787,-4.5811,-4.581,-4.5846,-4.5922,-4.5821,-4.5821,-4.5837,-4.6011,-4.6026,-4.604,-4.5912,-4.5915,-4.5917,-4.6008,0,-4.5468,-4.5564,-4.5569,-4.5656,-4.5701,-4.5688,-4.5735,-4.5763,-4.5775,-4.5814,-4.5826,-4.5869,-4.5842,-4.5856,-4.5892,-4.5905,-4.5956,-4.5899,-4.5951,-4.5953,-4.5942,-4.6056,-4.6071,-4.6156,-4.602,-4.6022,-4.6024,0,-4.5584,-4.5623,-4.5715,-4.5749,-4.5768,-4.581,-4.5852,-4.589,-4.5922,-4.5928,-4.5956,-4.5949,-4.6003,-4.5964,-4.6037,-4.5998,-4.602,-4.603,-4.6033,-4.6036,-4.5991,-4.606,-4.6183,-4.6195,-4.6043,-4.6041,-4.604,0,-4.5652,-4.5727,-4.5792,-4.5811,-4.5852,-4.5882,-4.59,-4.593,-4.5957,-4.5994,-4.6011,-4.6053,-4.6075,-4.6107,-4.6111,-4.6082,-4.6185,-4.6146,-4.6189,-4.6189,-4.6209,-4.6208,-4.6336,-4.6227,-4.6227,-4.6227,-4.6227,0,-4.575,-4.5806,-4.5824,-4.5863,-4.5926,-4.5931,-4.5992,-4.6008,-4.6035,-4.6076,-4.6067,-4.6106,-4.6111,-4.6151,-4.6155,-4.6215,-4.6225,-4.623,-4.623,-4.623,-4.6229,-4.6242,-4.6236,-4.623,-4.6229,-4.6229,-4.6228,0,-4.5835,-4.585,-4.5919,-4.5954,-4.5964,-4.6008,-4.6037,-4.6074,-4.6086,-4.6138,-4.6151,-4.6168,-4.6215,-4.6224,-4.6278,-4.6281,-4.6351,-4.6346,-4.6341,-4.634,-4.6382,-4.6378,-4.6522,-4.6541,-4.6422,-4.6423,-4.6424,0,-4.5896,-4.5939,-4.5979,-4.6007,-4.6028,-4.6073,-4.6101,-4.6108,-4.6138,-4.6178,-4.6211,-4.6257,-4.6294,-4.6368,-4.6385,-4.6426,-4.6421,-4.6469,-4.6427,-4.6425,-4.642,-4.6416,-4.642,-4.6476,-4.6477,-4.6478,-4.6479,0,-4.6001,-4.6006,-4.6048,-4.6094,-4.6128,-4.6163,-4.6197,-4.622,-4.6231,-4.6264,-4.6313,-4.6342,-4.6399,-4.6444,-4.6486,-4.6503,-4.6493,-4.6493,-4.6505,-4.6504,-4.6499,-4.6501,-4.6361,-4.6489,-4.6488,-4.6487,-4.6487,-4.6486,-4.6075,-4.6113,-4.6147,-4.6194,-4.6221,-4.6253,-4.629,-4.6307,-4.6349,-4.6396,-4.6398,-4.6451,-4.6482,-4.6538,-4.6558,-4.6598,-4.6583,-4.66,-4.6604,-4.6608,-4.6612,-4.6494,-4.6606,-4.6606,-4.6605,-4.6605,-4.6605,0,-4.6178,-4.6201,-4.6244,-4.6292,-4.633,-4.632,-4.6356,-4.6387,-4.6435,-4.6466,-4.6503,-4.6559,-4.6604,-4.6625,-4.6668,-4.6696,-4.6693,-4.6707,-4.6704,-4.6708,-4.6624,-4.6608,-4.671,-4.671,-4.671,-4.671,-4.671,-4.671,-4.6236,-4.63,-4.631,-4.6387,-4.6408,-4.6461,-4.6483,-4.6512,-4.6537,-4.66,-4.6638,-4.6653,-4.6679,-4.6725,-4.6765,-4.677,-4.6786,-4.6802,-4.6805,-4.6725,-4.6714,-4.6704,-4.6689,-4.6806,-4.6806,-4.6886,-4.6887,-4.6887]},{"header":{"parameterUnit":"m.s-1","parameterCategory":1,"la1":30.2991,"la2":30.254,"lo1":-89.0895,"lo2":-89.0444,"dy":0.0017,"dx":0.0017,"nx":28,"ny":28,"refTime":"2024-08-29T21:00:00:Z","depth":0,"parameterNumber":3,"parameterNumberName":"V-component_of_WINDS"},"data":[0,0,0,0,0,0,0,0,0,0,0,0,0,0,0,0,0,0,0,0,0,0,0,0,0,0,0,0,0,0,0,0,0,0,0,0,0,0,0,0,0,0,0,0,0,0,0,0,0,0,0,0,0,0,0,0,0,0,2.9856,2.9858,0,3.0009,3.0011,3.0013,3.007,3.0069,3.0069,3.0068,3.022,3.0225,3.0229,0,0,0,0,0,0,0,0,0,0,0,0,0,2.9608,2.9613,2.9856,2.9858,2.986,3.0009,3.0011,3.0013,3.007,3.0069,3.0068,3.0068,3.0219,3.0224,3.023,0,0,0,0,0,0,0,0,0,0,0,0,0,2.9734,2.9614,2.9856,2.9906,2.9912,3.0009,3.0011,3.0014,3.007,3.0069,3.0068,3.0068,3.0217,3.0224,3.023,3.0287,0,0,3.0251,3.0254,0,0,0,0,0,0,0,0,2.9727,2.9743,2.9897,2.9903,2.991,3.002,2.998,3.0105,3.007,3.001,3.0068,3.0067,3.0154,3.0166,3.0196,3.0294,3.03,3.0252,3.0256,3.0259,3.0261,0,0,0,0,0,0,0,2.9718,2.9737,2.9917,2.9899,2.9907,2.992,2.9937,3.0004,3.0084,3.0015,3.0019,3.0037,3.0157,3.0189,3.02,3.0303,3.0251,3.0257,3.0262,3.0264,3.0456,3.0457,0,0,0,0,0,0,2.9702,2.9729,2.9912,2.9921,2.9815,2.9925,2.9944,2.9985,3.0083,3.0098,3.0038,3.0039,3.0178,3.0192,3.0206,3.028,3.0259,3.0265,3.0269,3.0455,3.0456,3.0458,0,0,0,0,0,0,2.9696,2.9717,2.9906,2.9827,2.9852,2.993,2.9976,2.9988,3.0021,3.0101,3.0115,3.0056,3.0178,3.0196,3.0267,3.0286,3.0268,3.0274,3.0454,3.0456,3.0457,3.0427,0,0,0,0,0,0,2.9689,2.9715,2.9738,2.9827,2.9856,2.9965,2.9977,2.9992,3.0033,3.0036,3.0122,3.0135,3.0179,3.0257,3.0274,3.0295,3.0279,3.0453,3.0455,3.0456,3.0427,3.0428,3.0428,0,0,0,0,0,2.968,2.9722,2.9739,2.9761,2.9886,2.9966,2.9983,3.0034,3.0034,3.0058,3.0109,3.0132,3.0281,3.0263,3.0283,3.0306,3.0452,3.0454,3.0456,3.0427,3.0428,3.0428,0,0,0,0,0,0,2.9632,2.9735,2.9754,2.9827,2.9888,2.9976,3.0007,3.0033,3.0094,3.0094,3.0154,3.0172,3.0239,3.0279,3.0258,3.0367,3.0368,3.0374,3.0338,3.034,3.0341,3.033,3.0285,0,0,0,0,0,2.963,2.9688,2.9774,2.983,2.9859,2.9928,2.9964,2.9999,3.0063,3.0089,3.0145,3.0206,3.0267,3.0305,3.0365,3.0433,3.0453,3.0459,3.0459,3.0459,3.0465,3.0505,3.0509,3.0465,3.0465,3.0465,0,0,2.9626,2.9689,2.9722,2.9822,2.9873,2.9931,2.9949,3.0009,3.0052,3.0097,3.0169,3.0212,3.0284,3.0354,3.0388,3.039,3.0481,3.0462,3.0462,3.0467,3.0508,3.0512,3.0516,3.0467,3.0467,3.0466,0,0,2.9649,2.9703,2.9756,2.9808,2.9886,2.9931,2.9943,3.0028,3.006,3.0132,3.0168,3.022,3.0322,3.0373,3.0412,3.0455,3.0479,3.0473,3.0476,3.0515,3.0519,3.0522,3.0539,3.0545,3.0477,3.0477,3.0477,0,2.9634,2.9725,2.978,2.9839,2.9882,2.9928,2.9982,3.0028,3.0121,3.0149,3.0151,3.0282,3.0333,3.0417,3.0427,3.0457,3.0473,3.0464,3.0514,3.0518,3.0522,3.0539,3.0545,3.0476,3.0476,3.0476,3.0476,0,2.9703,2.9765,2.9799,2.989,2.9936,2.9992,3.0055,3.0095,3.0126,3.0171,3.0245,3.0308,3.0382,3.0404,3.0433,3.0492,3.0492,3.0503,3.0505,3.0524,3.0541,3.0548,3.0474,3.0475,3.0475,3.0475,0,0,2.9701,2.9823,2.9835,2.9877,2.9967,3.0015,3.0073,3.0148,3.0182,3.0244,3.0295,3.0381,3.0393,3.0437,3.0472,3.0506,3.0538,3.0513,3.0516,3.0517,3.0609,3.0601,3.0608,3.0554,3.0556,3.0557,3.0603,0,2.9738,2.9846,2.9898,2.9983,3.0041,3.0085,3.0136,3.0196,3.024,3.0294,3.0342,3.0403,3.0413,3.044,3.0475,3.0527,3.0558,3.0524,3.0602,3.0604,3.0585,3.0616,3.0608,3.0649,3.061,3.0611,3.0612,0,2.9795,2.986,2.9951,3.0036,3.0062,3.0107,3.0181,3.0232,3.0301,3.0331,3.0381,3.0415,3.0477,3.0474,3.0561,3.0537,3.0572,3.0602,3.0605,3.0615,3.061,3.0629,3.0663,3.067,3.0623,3.0622,3.0621,0,2.9787,2.9896,2.9966,3.0,3.01,3.0131,3.0173,3.0242,3.0284,3.0347,3.0376,3.0444,3.0482,3.0535,3.0587,3.0579,3.0669,3.067,3.0696,3.0694,3.0714,3.0712,3.0756,3.0733,3.0733,3.0733,3.0733,0,2.9823,2.9878,2.9964,3.0006,3.0069,3.0127,3.0187,3.0233,3.0293,3.0346,3.0386,3.0434,3.0499,3.0555,3.0596,3.0663,3.0679,3.0704,3.0715,3.0702,3.0699,3.0727,3.0726,3.0734,3.0734,3.0734,3.0733,0,2.9825,2.9884,2.9964,3.0052,3.0076,3.0118,3.0193,3.0236,3.0282,3.0348,3.0366,3.0438,3.0506,3.0563,3.0651,3.0678,3.0748,3.0759,3.0726,3.0732,3.0755,3.0753,3.0819,3.0832,3.0799,3.0799,3.0799,0,2.9845,2.9889,2.9982,3.0021,3.0064,3.0126,3.017,3.0228,3.0272,3.0354,3.0387,3.0459,3.0519,3.0625,3.0685,3.0753,3.0767,3.0786,3.0778,3.0764,3.077,3.0767,3.0773,3.0787,3.0787,3.0787,3.0787,0,2.9875,2.9903,2.9966,3.0039,3.0091,3.0151,3.0212,3.0241,3.031,3.0357,3.0429,3.0475,3.0567,3.0638,3.0712,3.0755,3.0783,3.0789,3.0799,3.0787,3.0766,3.078,3.0729,3.0787,3.0787,3.0787,3.0787,3.0787,2.9888,2.993,3.0003,3.0072,3.0124,3.0181,3.0226,3.0279,3.0339,3.042,3.045,3.0523,3.0592,3.0696,3.0739,3.0796,3.08,3.0813,3.0817,3.082,3.082,3.0756,3.081,3.081,3.081,3.081,3.081,0,2.9923,2.9972,3.0035,3.012,3.0174,3.0197,3.0265,3.0309,3.0373,3.0436,3.0495,3.0577,3.0646,3.0711,3.0783,3.0816,3.0831,3.0833,3.0832,3.0842,3.0811,3.0797,3.0821,3.0821,3.0821,3.0821,3.0821,3.0821,2.9947,3.0019,3.0056,3.0154,3.0203,3.0277,3.0314,3.0366,3.0417,3.0507,3.0566,3.0608,3.0672,3.0749,3.0813,3.083,3.0855,3.0855,3.0876,3.0846,3.0844,3.0842,3.0829,3.0859,3.086,3.0902,3.0903,3.0903]}]]